Terminal Aerodrome Forecast
Issued by NWS Mobile, AL

Home | Current Version | Previous Version | Text Only | Print | Product List | Glossary On
Versions: 1 2 3 4 5 6 7 8 9 10 11 12 13 14 15 16 17 18 19 20 21 22 23 24 25 26 27 28 29 30 31 32 33 34 35 36 37 38
000
FTUS44 KMOB 291026 AAC
TAFPNS
TAF AMD
KPNS 291026Z 2910/3006 08006KT P6SM SCT006
      TEMPO 2910/2913 BKN006
     FM291300 11006KT P6SM SCT015
     FM291800 15010KT P6SM SCT040
      TEMPO 2919/2922 VRB15G25KT 3SM TSRA SCT025CB BKN040=

USA.gov is the U.S. government's official web portal to all federal, state and local government web resources and services.